Location: Larrial
(48.2758°N, 4.5331°W)
Time: 01:08:03
(UTC+00:00)

XW-2F - Pass Details

Date: 29 November 2021
Orbit: 495 x 515 km, 97.5° (Epoch: 16 January)

Event Time Altitude Azimuth Distance (km) Brightness Sun altitude
Rises 06:59:30 0° 8° (N) 2,651 ? -7.6°
Reaches altitude 10° 07:01:38 10° 4° (N) 1,760 ? -7.3°
Maximum altitude 07:05:20 53° 288° (WNW) 643 ? -6.7°
Drops below altitude 10° 07:09:00 10° 211° (SSW) 1,745 ? -6.1°
Sets 07:11:07 0° 206° (SSW) 2,626 ? -5.8°
